SPACEMOBILE-SSR03 DEB, 62371

Orbit data source: Space-Track

SPACEMOBILE-SSR03 DEB, 62371 is space debris in LEO originally from a launch on Thu, 12 Sep 2024 UTC launched from the Air Force Eastern Test Range (AFETR). Debris objects in space refer to the collection of defunct objects orbiting the Earth. Examples of debris include non-operational satellites, rocket bodies, and fragments generated from explosions, collisions, or faulty payload assembly.

Loading next visibility...
Identifier
62371, 2024-163H
Orbit
LEO
Country
Flag of USUS
Related business
Manufacturer
AST & Science
Mission
Spacecraft
Bus & Motor
BW3 LVA, Unknown motor
Mass
150 kg wet, 150 kg dry
Launch date (UTC)
2024-09-12 (1 year ago)
Launch vehicle
Unknown
Launch site
Air Force Eastern Test Range (AFETR)
Object type
Payload
Rocket body
Debris
Shape & HBR
Cyl, 3.8 m
Radar Cross Section
1.963 m², Large (>1 m²)

Expand to show TLE details & history
Last TLE update: 11 hours ago

TLE from 11 hours ago
0 SPACEMOBILE-SSR03 DEB
1 62371U 24163H   25340.61476041  .00030357  00000-0  95237-3 0  9995
2 62371  52.9725  98.9081 0008804 259.8047 100.1960 15.32776509 62270
Epoch: 2025-12-06T14:45Z
TLE epoch observation values (Epoch: 2025-12-06T14:45:15.299Z)
Latitude
0.00001°
Longitude
161.9544°
Altitude
469.485 km
Speed
7.632 km/s
True Right ascension
06h 35m 37s
True Declination
0° 00' 00"
Sunlit
Object was in full shadow at epoch
Visualization orbit readout
Latitude
Unknown
Longitude
Unknown
Altitude
Unknown
Speed
Unknown
Apparent Right ascension
Unknown
Apparent Declination
Unknown
Sunlit
N/A
Visualization observer readout
Local Sidereal Time
23:31:36
Azimuth
Unknown
Elevation
Unknown
Doppler factor
Unknown
Orbital elements
Apogee altitude
473.847 km
Perigee altitude
461.793 km
Semi-major axis
6,845.957 km
Eccentricity
0.00088
Inclination
52.9725°
RAAN
98.9081°
Arg. of periapsis
259.8047°
True anomaly
100.29527°
Mean anomaly
100.196°
Eccentric anomaly
100.24564°
Mean motion
3.8317 °/min
Orbital period
93.95 mins
BSTAR
0.00095237
Loading maneuver chart data...
Computing Atmospheric mass density...
Loading historical data...
Loading historical data...
Loading historical data...
Loading historical data...
Loading historical data...
Loading historical data...
Loading historical data...

Documentation

Showing up to 5 results
|